Time,TemperatureF,DewpointF,PressureIn,WindDirection,WindDirectionDegrees,WindSpeedMPH,WindSpeedGustMPH,Humidity,HourlyPrecipIn,Conditions,Clouds,dailyrainin,SoftwareType,DateUTC
2013-02-06 00:00:00,35.2,27.8,29.97,WSW,246,0.0,0.0,74,0.00,,---,0.00,VWS V14.01,2013-02-06 05:00:00,
2013-02-06 00:05:00,35.2,27.4,29.97,WSW,246,0.0,0.0,73,0.00,,---,0.00,VWS V14.01,2013-02-06 05:05:00,
2013-02-06 00:10:00,35.3,27.5,29.97,WSW,246,0.0,0.0,73,0.00,,---,0.00,VWS V14.01,2013-02-06 05:10:00,
2013-02-06 00:15:00,35.5,27.4,29.97,WSW,246,0.0,0.0,72,0.00,,---,0.00,VWS V14.01,2013-02-06 05:15:00,
2013-02-06 00:20:00,35.6,27.5,29.98,WSW,256,0.0,1.0,72,0.00,,---,0.00,VWS V14.01,2013-02-06 05:20:00,
2013-02-06 00:25:00,35.7,27.6,29.98,West,271,0.0,1.0,72,0.00,,---,0.00,VWS V14.01,2013-02-06 05:25:00,
2013-02-06 00:30:00,35.8,27.3,29.98,WNW,284,0.0,1.0,71,0.00,,---,0.00,VWS V14.01,2013-02-06 05:30:00,
2013-02-06 00:35:00,35.9,27.4,29.98,WNW,284,0.0,0.0,71,0.00,,---,0.00,VWS V14.01,2013-02-06 05:35:00,
2013-02-06 00:40:00,36.0,27.5,29.98,WNW,284,0.0,0.0,71,0.00,,---,0.00,VWS V14.01,2013-02-06 05:40:00,
2013-02-06 00:45:00,35.9,27.8,29.97,WNW,284,0.0,0.0,72,0.00,,---,0.00,VWS V14.01,2013-02-06 05:45:00,
2013-02-06 00:50:00,35.7,27.6,29.98,WNW,284,0.0,0.0,72,0.00,,---,0.00,VWS V14.01,2013-02-06 05:50:00,
2013-02-06 00:55:00,35.6,27.8,29.98,WNW,284,0.0,0.0,73,0.00,,---,0.00,VWS V14.01,2013-02-06 05:55:00,
2013-02-06 01:00:00,35.5,27.7,29.98,WNW,284,0.0,0.0,73,0.00,,---,0.00,VWS V14.01,2013-02-06 06:00:00,
2013-02-06 01:05:00,35.5,27.4,29.97,WNW,284,0.0,0.0,72,0.00,,---,0.00,VWS V14.01,2013-02-06 06:05:00,
2013-02-06 01:10:00,35.6,27.8,29.97,WNW,284,0.0,1.0,73,0.00,,---,0.00,VWS V14.01,2013-02-06 06:10:00,
2013-02-06 01:15:00,35.6,27.5,29.97,WNW,284,0.0,1.0,72,0.00,,---,0.00,VWS V14.01,2013-02-06 06:15:00,
2013-02-06 01:20:00,35.6,27.5,29.98,WNW,284,0.0,1.0,72,0.00,,---,0.00,VWS V14.01,2013-02-06 06:20:00,
2013-02-06 01:25:00,35.6,27.5,29.98,WNW,284,0.0,1.0,72,0.00,,---,0.00,VWS V14.01,2013-02-06 06:25:00,
2013-02-06 01:30:00,35.6,27.8,29.97,WNW,284,0.0,1.0,73,0.00,,---,0.00,VWS V14.01,2013-02-06 06:30:00,
2013-02-06 01:35:00,35.6,28.1,29.97,WNW,284,0.0,0.0,74,0.00,,---,0.00,VWS V14.01,2013-02-06 06:35:00,
2013-02-06 01:40:00,35.6,28.1,29.97,WNW,284,0.0,0.0,74,0.00,,---,0.00,VWS V14.01,2013-02-06 06:40:00,
2013-02-06 01:45:00,35.5,28.0,29.97,WNW,284,0.0,0.0,74,0.00,,---,0.00,VWS V14.01,2013-02-06 06:45:00,
2013-02-06 01:50:00,35.4,28.0,29.97,WNW,284,0.0,0.0,74,0.00,,---,0.00,VWS V14.01,2013-02-06 06:50:00,
2013-02-06 01:55:00,35.3,28.2,29.97,WNW,284,0.0,0.0,75,0.00,,---,0.00,VWS V14.01,2013-02-06 06:55:00,
2013-02-06 02:00:00,35.2,28.1,29.98,WNW,284,0.0,0.0,75,0.00,,---,0.00,VWS V14.01,2013-02-06 07:00:00,
2013-02-06 02:05:00,35.0,27.6,29.98,WNW,284,0.0,0.0,74,0.00,,---,0.00,VWS V14.01,2013-02-06 07:05:00,
2013-02-06 02:10:00,34.9,27.5,29.98,WNW,284,0.0,0.0,74,0.00,,---,0.00,VWS V14.01,2013-02-06 07:10:00,
2013-02-06 02:15:00,34.8,27.7,29.98,WNW,284,0.0,0.0,75,0.00,,---,0.00,VWS V14.01,2013-02-06 07:15:00,
2013-02-06 02:20:00,34.8,28.0,29.98,WNW,284,0.0,0.0,76,0.00,,---,0.00,VWS V14.01,2013-02-06 07:20:00,
2013-02-06 02:25:00,34.7,27.9,29.98,WNW,284,0.0,0.0,76,0.00,,---,0.00,VWS V14.01,2013-02-06 07:25:00,
2013-02-06 02:30:00,34.8,28.0,29.98,WNW,284,0.0,0.0,76,0.00,,---,0.00,VWS V14.01,2013-02-06 07:30:00,
2013-02-06 02:35:00,34.9,28.1,29.98,WNW,284,0.0,0.0,76,0.00,,---,0.00,VWS V14.01,2013-02-06 07:35:00,
2013-02-06 02:40:00,34.9,28.4,29.98,WNW,284,0.0,0.0,77,0.00,,---,0.00,VWS V14.01,2013-02-06 07:40:00,
2013-02-06 02:45:00,34.9,28.1,29.98,WNW,284,0.0,0.0,76,0.00,,---,0.00,VWS V14.01,2013-02-06 07:45:00,
2013-02-06 02:50:00,34.9,27.8,29.98,WNW,284,0.0,0.0,75,0.00,,---,0.00,VWS V14.01,2013-02-06 07:50:00,
2013-02-06 02:55:00,34.9,27.8,29.98,WNW,284,0.0,0.0,75,0.00,,---,0.00,VWS V14.01,2013-02-06 07:55:00,
2013-02-06 03:00:00,35.1,28.0,29.98,WNW,284,0.0,1.0,75,0.00,,---,0.00,VWS V14.01,2013-02-06 08:00:00,
2013-02-06 03:05:00,35.2,28.4,29.98,WNW,284,0.0,0.0,76,0.00,,---,0.00,VWS V14.01,2013-02-06 08:05:00,
2013-02-06 03:10:00,35.1,28.3,29.98,WNW,284,0.0,0.0,76,0.00,,---,0.00,VWS V14.01,2013-02-06 08:10:00,
2013-02-06 03:15:00,34.9,28.1,29.98,WNW,284,0.0,0.0,76,0.00,,---,0.00,VWS V14.01,2013-02-06 08:15:00,
2013-02-06 03:20:00,34.5,28.0,29.98,WNW,284,0.0,0.0,77,0.00,,---,0.00,VWS V14.01,2013-02-06 08:20:00,
2013-02-06 03:25:00,34.2,28.1,29.99,WNW,284,0.0,0.0,78,0.00,,---,0.00,VWS V14.01,2013-02-06 08:25:00,
2013-02-06 03:30:00,33.8,27.7,29.99,WNW,284,0.0,0.0,78,0.00,,---,0.00,VWS V14.01,2013-02-06 08:30:00,
2013-02-06 03:35:00,33.4,27.6,29.99,WNW,284,0.0,0.0,79,0.00,,---,0.00,VWS V14.01,2013-02-06 08:35:00,
2013-02-06 03:40:00,33.1,27.6,29.99,WNW,284,0.0,0.0,80,0.00,,---,0.00,VWS V14.01,2013-02-06 08:40:00,
2013-02-06 03:45:00,32.9,27.4,29.99,WNW,284,0.0,0.0,80,0.00,,---,0.00,VWS V14.01,2013-02-06 08:45:00,
2013-02-06 03:50:00,32.7,27.2,30.00,WNW,284,0.0,0.0,80,0.00,,---,0.00,VWS V14.01,2013-02-06 08:50:00,
2013-02-06 03:55:00,32.5,27.0,30.00,WNW,284,0.0,0.0,80,0.00,,---,0.00,VWS V14.01,2013-02-06 08:55:00,
2013-02-06 04:00:00,32.3,27.1,30.00,WNW,284,0.0,0.0,81,0.00,,---,0.00,VWS V14.01,2013-02-06 09:00:00,
2013-02-06 04:05:00,32.1,27.2,30.01,WNW,284,0.0,0.0,82,0.00,,---,0.00,VWS V14.01,2013-02-06 09:05:00,
2013-02-06 04:10:00,32.1,27.2,30.01,WNW,284,0.0,0.0,82,0.00,,---,0.00,VWS V14.01,2013-02-06 09:10:00,
2013-02-06 04:15:00,32.1,27.5,30.01,WNW,284,0.0,0.0,83,0.00,,---,0.00,VWS V14.01,2013-02-06 09:15:00,
2013-02-06 04:20:00,32.2,27.6,30.01,WNW,284,0.0,0.0,83,0.00,,---,0.00,VWS V14.01,2013-02-06 09:20:00,
2013-02-06 04:25:00,32.4,27.5,30.02,WNW,284,0.0,0.0,82,0.00,,---,0.00,VWS V14.01,2013-02-06 09:25:00,
2013-02-06 04:29:00,32.5,27.6,30.02,WNW,284,0.0,0.0,82,0.00,,---,0.00,VWS V14.01,2013-02-06 09:29:00,
2013-02-06 04:34:00,32.5,27.6,30.02,WNW,284,0.0,0.0,82,0.00,,---,0.00,VWS V14.01,2013-02-06 09:34:00,
2013-02-06 04:39:00,32.5,27.6,30.03,WNW,284,0.0,0.0,82,0.00,,---,0.00,VWS V14.01,2013-02-06 09:39:00,
2013-02-06 04:44:00,32.6,27.7,30.03,WNW,284,0.0,0.0,82,0.00,,---,0.00,VWS V14.01,2013-02-06 09:44:00,
2013-02-06 04:49:00,32.7,27.8,30.03,WNW,284,0.0,0.0,82,0.00,,---,0.00,VWS V14.01,2013-02-06 09:49:00,
2013-02-06 04:54:00,32.8,28.2,30.04,WNW,284,0.0,0.0,83,0.00,,---,0.00,VWS V14.01,2013-02-06 09:54:00,
2013-02-06 04:59:00,32.8,28.2,30.04,WNW,284,0.0,0.0,83,0.00,,---,0.00,VWS V14.01,2013-02-06 09:59:00,
2013-02-06 05:04:00,32.9,28.0,30.04,WNW,284,0.0,0.0,82,0.00,,---,0.00,VWS V14.01,2013-02-06 10:04:00,
2013-02-06 05:09:00,32.9,28.0,30.04,WNW,284,0.0,0.0,82,0.00,,---,0.00,VWS V14.01,2013-02-06 10:09:00,
2013-02-06 05:14:00,33.0,28.1,30.05,WNW,284,0.0,0.0,82,0.00,,---,0.00,VWS V14.01,2013-02-06 10:14:00,
2013-02-06 05:19:00,33.0,28.4,30.05,WNW,284,0.0,0.0,83,0.00,,---,0.00,VWS V14.01,2013-02-06 10:19:00,
2013-02-06 05:24:00,33.1,28.5,30.05,WNW,284,0.0,0.0,83,0.00,,---,0.00,VWS V14.01,2013-02-06 10:24:00,
2013-02-06 05:29:00,33.3,28.7,30.06,WNW,284,0.0,0.0,83,0.00,,---,0.00,VWS V14.01,2013-02-06 10:29:00,
2013-02-06 05:34:00,33.3,28.7,30.06,WNW,284,0.0,0.0,83,0.00,,---,0.00,VWS V14.01,2013-02-06 10:34:00,
2013-02-06 05:39:00,33.3,28.7,30.07,WNW,284,0.0,0.0,83,0.00,,---,0.00,VWS V14.01,2013-02-06 10:39:00,
2013-02-06 05:44:00,33.4,28.8,30.07,WNW,284,0.0,0.0,83,0.00,,---,0.00,VWS V14.01,2013-02-06 10:44:00,
2013-02-06 05:49:00,33.5,28.9,30.07,WNW,284,0.0,0.0,83,0.00,,---,0.00,VWS V14.01,2013-02-06 10:49:00,
2013-02-06 05:54:00,33.5,28.9,30.07,WNW,284,0.0,0.0,83,0.00,,---,0.00,VWS V14.01,2013-02-06 10:54:00,
2013-02-06 05:59:00,33.5,28.9,30.07,WNW,284,0.0,0.0,83,0.00,,---,0.00,VWS V14.01,2013-02-06 10:59:00,
2013-02-06 06:04:00,33.6,29.0,30.08,WNW,284,0.0,0.0,83,0.00,,---,0.00,VWS V14.01,2013-02-06 11:04:00,
2013-02-06 06:09:00,33.5,28.9,30.08,WNW,284,0.0,0.0,83,0.00,,---,0.00,VWS V14.01,2013-02-06 11:09:00,
2013-02-06 06:14:00,33.4,28.5,30.08,WNW,284,0.0,0.0,82,0.00,,---,0.00,VWS V14.01,2013-02-06 11:14:00,
2013-02-06 06:19:00,33.3,28.4,30.08,WNW,284,0.0,0.0,82,0.00,,---,0.00,VWS V14.01,2013-02-06 11:19:00,
2013-02-06 06:24:00,33.2,28.3,30.09,WNW,284,0.0,0.0,82,0.00,,---,0.00,VWS V14.01,2013-02-06 11:24:00,
2013-02-06 06:29:00,32.9,28.0,30.09,WNW,284,0.0,0.0,82,0.00,,---,0.00,VWS V14.01,2013-02-06 11:29:00,
2013-02-06 06:34:00,32.7,28.1,30.09,WNW,284,0.0,0.0,83,0.00,,---,0.00,VWS V14.01,2013-02-06 11:34:00,
2013-02-06 06:39:00,32.5,28.2,30.09,WNW,284,0.0,0.0,84,0.00,,---,0.00,VWS V14.01,2013-02-06 11:39:00,
2013-02-06 06:44:00,32.2,27.9,30.10,WNW,284,0.0,0.0,84,0.00,,---,0.00,VWS V14.01,2013-02-06 11:44:00,
2013-02-06 06:49:00,32.0,28.0,30.10,WNW,284,0.0,0.0,85,0.00,,---,0.00,VWS V14.01,2013-02-06 11:49:00,
2013-02-06 06:54:00,31.8,27.8,30.10,WNW,284,0.0,0.0,85,0.00,,---,0.00,VWS V14.01,2013-02-06 11:54:00,
2013-02-06 06:59:00,31.5,27.5,30.10,WNW,284,0.0,0.0,85,0.00,,---,0.00,VWS V14.01,2013-02-06 11:59:00,
2013-02-06 07:04:00,31.3,27.6,30.11,WNW,284,0.0,0.0,86,0.00,,---,0.00,VWS V14.01,2013-02-06 12:04:00,
2013-02-06 07:09:00,31.3,27.6,30.11,WNW,284,0.0,0.0,86,0.00,,---,0.00,VWS V14.01,2013-02-06 12:09:00,
2013-02-06 07:14:00,31.2,27.5,30.11,WNW,284,0.0,0.0,86,0.00,,---,0.00,VWS V14.01,2013-02-06 12:14:00,
2013-02-06 07:19:00,31.2,27.5,30.12,WNW,284,0.0,0.0,86,0.00,,---,0.00,VWS V14.01,2013-02-06 12:19:00,
2013-02-06 07:24:00,31.2,27.5,30.12,WNW,284,0.0,0.0,86,0.00,,---,0.00,VWS V14.01,2013-02-06 12:24:00,
2013-02-06 07:29:00,31.0,27.3,30.12,WNW,284,0.0,0.0,86,0.00,,---,0.00,VWS V14.01,2013-02-06 12:29:00,
2013-02-06 07:34:00,30.8,27.1,30.12,WNW,284,0.0,0.0,86,0.00,,---,0.00,VWS V14.01,2013-02-06 12:34:00,
2013-02-06 07:39:00,30.7,27.3,30.13,WNW,284,0.0,0.0,87,0.00,,---,0.00,VWS V14.01,2013-02-06 12:39:00,
2013-02-06 07:44:00,30.7,27.3,30.13,WNW,284,0.0,0.0,87,0.00,,---,0.00,VWS V14.01,2013-02-06 12:44:00,
2013-02-06 07:49:00,30.7,27.6,30.14,WNW,284,0.0,0.0,88,0.00,,---,0.00,VWS V14.01,2013-02-06 12:49:00,
2013-02-06 07:54:00,30.8,27.7,30.14,WNW,284,0.0,0.0,88,0.00,,---,0.00,VWS V14.01,2013-02-06 12:54:00,
2013-02-06 07:59:00,30.9,27.8,30.15,WNW,284,0.0,0.0,88,0.00,,---,0.00,VWS V14.01,2013-02-06 12:59:00,
2013-02-06 08:04:00,31.1,28.0,30.15,WNW,284,0.0,0.0,88,0.00,,---,0.00,VWS V14.01,2013-02-06 13:04:00,
2013-02-06 08:09:00,31.3,28.2,30.16,WNW,284,0.0,0.0,88,0.00,,---,0.00,VWS V14.01,2013-02-06 13:09:00,
2013-02-06 08:14:00,32.1,29.2,30.16,North,354,0.0,0.0,89,0.00,,---,0.00,VWS V14.01,2013-02-06 13:14:00,
2013-02-06 08:19:00,33.4,30.2,30.16,North,7,0.0,1.0,88,0.00,,---,0.00,VWS V14.01,2013-02-06 13:19:00,
2013-02-06 08:24:00,34.5,30.5,30.16,WNW,288,0.0,3.0,85,0.00,,---,0.00,VWS V14.01,2013-02-06 13:24:00,
2013-02-06 08:29:00,35.5,30.9,30.16,West,281,0.0,3.0,83,0.00,,---,0.00,VWS V14.01,2013-02-06 13:29:00,
2013-02-06 08:34:00,36.1,30.8,30.17,North,351,0.0,1.0,81,0.00,,---,0.00,VWS V14.01,2013-02-06 13:34:00,
2013-02-06 08:39:00,36.7,31.1,30.17,NNE,23,1.0,3.0,80,0.00,,---,0.00,VWS V14.01,2013-02-06 13:39:00,
2013-02-06 08:44:00,37.1,31.2,30.17,West,276,2.0,3.0,79,0.00,,---,0.00,VWS V14.01,2013-02-06 13:44:00,
2013-02-06 08:49:00,37.5,31.3,30.17,NW,317,0.0,4.0,78,0.00,,---,0.00,VWS V14.01,2013-02-06 13:49:00,
2013-02-06 08:54:00,38.0,31.4,30.17,WNW,288,0.0,4.0,77,0.00,,---,0.00,VWS V14.01,2013-02-06 13:54:00,
2013-02-06 08:59:00,38.4,31.2,30.17,NNW,330,2.0,5.0,75,0.00,,---,0.00,VWS V14.01,2013-02-06 13:59:00,
2013-02-06 09:04:00,38.7,30.8,30.17,West,281,3.0,4.0,73,0.00,,---,0.00,VWS V14.01,2013-02-06 14:04:00,
2013-02-06 09:09:00,38.9,31.0,30.18,West,269,0.0,5.0,73,0.00,,---,0.00,VWS V14.01,2013-02-06 14:09:00,
2013-02-06 09:14:00,39.1,31.2,30.17,NW,325,0.0,5.0,73,0.00,,---,0.00,VWS V14.01,2013-02-06 14:14:00,
2013-02-06 09:19:00,39.5,30.9,30.17,NW,307,0.0,9.0,71,0.00,,---,0.00,VWS V14.01,2013-02-06 14:19:00,
2013-02-06 09:24:00,39.9,30.9,30.18,NNW,347,1.0,9.0,70,0.00,,---,0.00,VWS V14.01,2013-02-06 14:24:00,
2013-02-06 09:29:00,40.3,30.6,30.18,NNE,13,5.0,9.0,68,0.00,,---,0.00,VWS V14.01,2013-02-06 14:29:00,
2013-02-06 09:34:00,40.5,30.4,30.19,NW,314,1.0,5.0,67,0.00,,---,0.00,VWS V14.01,2013-02-06 14:34:00,
2013-02-06 09:39:00,40.9,31.2,30.19,ESE,117,0.0,5.0,68,0.00,,---,0.00,VWS V14.01,2013-02-06 14:39:00,
2013-02-06 09:44:00,41.2,30.3,30.18,NNE,23,3.0,6.0,65,0.00,,---,0.00,VWS V14.01,2013-02-06 14:44:00,
2013-02-06 09:49:00,41.3,30.4,30.19,WNW,298,0.0,6.0,65,0.00,,---,0.00,VWS V14.01,2013-02-06 14:49:00,
2013-02-06 09:54:00,41.7,30.8,30.19,ESE,119,1.0,6.0,65,0.00,,---,0.00,VWS V14.01,2013-02-06 14:54:00,
2013-02-06 09:59:00,41.9,30.2,30.19,NW,310,3.0,7.0,63,0.00,,---,0.00,VWS V14.01,2013-02-06 14:59:00,
2013-02-06 10:04:00,42.1,30.4,30.19,SW,236,1.0,4.0,63,0.00,,---,0.00,VWS V14.01,2013-02-06 15:04:00,
2013-02-06 10:09:00,42.5,30.4,30.19,East,84,1.0,13.0,62,0.00,,---,0.00,VWS V14.01,2013-02-06 15:09:00,
2013-02-06 10:14:00,42.8,29.9,30.20,NW,315,3.0,13.0,60,0.00,,---,0.00,VWS V14.01,2013-02-06 15:14:00,
2013-02-06 10:19:00,43.0,30.1,30.20,NNE,26,3.0,13.0,60,0.00,,---,0.00,VWS V14.01,2013-02-06 15:19:00,
2013-02-06 10:24:00,43.2,30.3,30.20,West,264,2.0,13.0,60,0.00,,---,0.00,VWS V14.01,2013-02-06 15:24:00,
2013-02-06 10:29:00,43.4,29.2,30.20,West,280,3.0,13.0,57,0.00,,---,0.00,VWS V14.01,2013-02-06 15:29:00,
2013-02-06 10:34:00,43.5,29.3,30.21,North,351,2.0,6.0,57,0.00,,---,0.00,VWS V14.01,2013-02-06 15:34:00,
2013-02-06 10:39:00,43.9,30.1,30.21,SW,232,2.0,6.0,58,0.00,,---,0.00,VWS V14.01,2013-02-06 15:39:00,
2013-02-06 10:44:00,43.9,29.7,30.21,NNW,335,0.0,7.0,57,0.00,,---,0.00,VWS V14.01,2013-02-06 15:44:00,
2013-02-06 10:49:00,44.4,30.1,30.21,WNW,284,1.0,7.0,57,0.00,,---,0.00,VWS V14.01,2013-02-06 15:49:00,
2013-02-06 10:54:00,44.0,29.8,30.21,NNE,18,3.0,8.0,57,0.00,,---,0.00,VWS V14.01,2013-02-06 15:54:00,
2013-02-06 10:59:00,43.9,29.2,30.21,NNE,15,2.0,8.0,56,0.00,,---,0.00,VWS V14.01,2013-02-06 15:59:00,
2013-02-06 11:04:00,44.4,29.7,30.22,WNW,291,5.0,5.0,56,0.00,,---,0.00,VWS V14.01,2013-02-06 16:04:00,
2013-02-06 11:09:00,44.5,28.9,30.22,WNW,300,1.0,8.0,54,0.00,,---,0.00,VWS V14.01,2013-02-06 16:09:00,
2013-02-06 11:14:00,44.3,29.6,30.22,WSW,253,4.0,8.0,56,0.00,,---,0.00,VWS V14.01,2013-02-06 16:14:00,
2013-02-06 11:19:00,44.2,29.1,30.23,NNW,335,2.0,8.0,55,0.00,,---,0.00,VWS V14.01,2013-02-06 16:19:00,
2013-02-06 11:24:00,44.1,29.4,30.23,SSW,203,2.0,8.0,56,0.00,,---,0.00,VWS V14.01,2013-02-06 16:24:00,
2013-02-06 11:29:00,44.8,30.1,30.22,ENE,58,1.0,8.0,56,0.00,,---,0.00,VWS V14.01,2013-02-06 16:29:00,
2013-02-06 11:34:00,44.7,29.5,30.22,NW,326,2.0,8.0,55,0.00,,---,0.00,VWS V14.01,2013-02-06 16:34:00,
2013-02-06 11:39:00,44.3,29.2,30.23,West,261,1.0,8.0,55,0.00,,---,0.00,VWS V14.01,2013-02-06 16:39:00,
2013-02-06 11:44:00,44.1,28.5,30.23,WNW,302,3.0,9.0,54,0.00,,---,0.00,VWS V14.01,2013-02-06 16:44:00,
2013-02-06 11:49:00,44.1,29.0,30.23,WNW,284,4.0,9.0,55,0.00,,---,0.00,VWS V14.01,2013-02-06 16:49:00,
2013-02-06 11:54:00,44.2,28.6,30.23,NW,314,2.0,10.0,54,0.00,,---,0.00,VWS V14.01,2013-02-06 16:54:00,
2013-02-06 11:59:00,44.1,28.5,30.23,NNE,14,1.0,10.0,54,0.00,,---,0.00,VWS V14.01,2013-02-06 16:59:00,
2013-02-06 12:04:00,44.2,29.1,30.23,SW,235,5.0,7.0,55,0.00,,---,0.00,VWS V14.01,2013-02-06 17:04:00,
2013-02-06 12:09:00,44.5,28.9,30.23,North,352,4.0,10.0,54,0.00,,---,0.00,VWS V14.01,2013-02-06 17:09:00,
2013-02-06 12:14:00,44.4,28.8,30.22,NW,321,4.0,10.0,54,0.00,,---,0.00,VWS V14.01,2013-02-06 17:14:00,
2013-02-06 12:19:00,44.7,28.6,30.22,SE,133,2.0,10.0,53,0.00,,---,0.00,VWS V14.01,2013-02-06 17:19:00,
2013-02-06 12:24:00,44.7,28.2,30.23,WNW,293,7.0,10.0,52,0.00,,---,0.00,VWS V14.01,2013-02-06 17:24:00,
2013-02-06 12:29:00,44.3,27.8,30.23,NE,49,4.0,10.0,52,0.00,,---,0.00,VWS V14.01,2013-02-06 17:29:00,
2013-02-06 12:34:00,44.4,27.4,30.22,WNW,286,1.0,6.0,51,0.00,,---,0.00,VWS V14.01,2013-02-06 17:34:00,
2013-02-06 12:39:00,44.9,27.9,30.22,NNW,338,7.0,7.0,51,0.00,,---,0.00,VWS V14.01,2013-02-06 17:39:00,
2013-02-06 12:44:00,44.8,27.8,30.22,North,4,5.0,9.0,51,0.00,,---,0.00,VWS V14.01,2013-02-06 17:44:00,
2013-02-06 12:49:00,44.9,27.4,30.22,West,278,2.0,9.0,50,0.00,,---,0.00,VWS V14.01,2013-02-06 17:49:00,
2013-02-06 12:54:00,45.3,28.2,30.21,SW,236,2.0,9.0,51,0.00,,---,0.00,VWS V14.01,2013-02-06 17:54:00,
2013-02-06 12:59:00,45.9,27.8,30.22,SSW,195,2.0,9.0,49,0.00,,---,0.00,VWS V14.01,2013-02-06 17:59:00,
2013-02-06 13:04:00,45.5,27.5,30.22,SE,136,2.0,7.0,49,0.00,,---,0.00,VWS V14.01,2013-02-06 18:04:00,
2013-02-06 13:09:00,45.8,27.7,30.23,WNW,294,3.0,7.0,49,0.00,,---,0.00,VWS V14.01,2013-02-06 18:09:00,
2013-02-06 13:14:00,45.7,26.6,30.23,NW,323,4.0,11.0,47,0.00,,---,0.00,VWS V14.01,2013-02-06 18:14:00,
2013-02-06 13:19:00,45.4,27.4,30.23,NNW,329,2.0,11.0,49,0.00,,---,0.00,VWS V14.01,2013-02-06 18:19:00,
2013-02-06 13:24:00,45.7,27.6,30.22,NNW,338,5.0,11.0,49,0.00,,---,0.00,VWS V14.01,2013-02-06 18:24:00,
2013-02-06 13:29:00,46.0,27.9,30.22,North,351,1.0,11.0,49,0.00,,---,0.00,VWS V14.01,2013-02-06 18:29:00,
2013-02-06 13:34:00,45.9,26.8,30.22,NNE,32,1.0,11.0,47,0.00,,---,0.00,VWS V14.01,2013-02-06 18:34:00,
2013-02-06 13:39:00,46.0,26.9,30.22,SW,236,4.0,11.0,47,0.00,,---,0.00,VWS V14.01,2013-02-06 18:39:00,
2013-02-06 13:44:00,45.6,27.1,30.22,West,266,3.0,11.0,48,0.00,,---,0.00,VWS V14.01,2013-02-06 18:44:00,
2013-02-06 13:49:00,45.7,27.1,30.22,ENE,65,4.0,11.0,48,0.00,,---,0.00,VWS V14.01,2013-02-06 18:49:00,
2013-02-06 13:54:00,45.8,27.2,30.22,ESE,102,2.0,11.0,48,0.00,,---,0.00,VWS V14.01,2013-02-06 18:54:00,
2013-02-06 13:59:00,45.5,26.5,30.22,WNW,295,3.0,11.0,47,0.00,,---,0.00,VWS V14.01,2013-02-06 18:59:00,
2013-02-06 14:04:00,45.2,26.2,30.22,WNW,300,1.0,6.0,47,0.00,,---,0.00,VWS V14.01,2013-02-06 19:04:00,
2013-02-06 14:09:00,45.4,26.4,30.22,NW,316,3.0,11.0,47,0.00,,---,0.00,VWS V14.01,2013-02-06 19:09:00,
2013-02-06 14:14:00,45.3,26.3,30.22,SW,236,4.0,11.0,47,0.00,,---,0.00,VWS V14.01,2013-02-06 19:14:00,
2013-02-06 14:19:00,45.4,26.9,30.22,WNW,293,2.0,11.0,48,0.00,,---,0.00,VWS V14.01,2013-02-06 19:19:00,
2013-02-06 14:24:00,45.9,27.3,30.22,West,277,1.0,11.0,48,0.00,,---,0.00,VWS V14.01,2013-02-06 19:24:00,
2013-02-06 14:29:00,46.3,27.2,30.22,NNW,334,4.0,11.0,47,0.00,,---,0.00,VWS V14.01,2013-02-06 19:29:00,
2013-02-06 14:34:00,46.3,27.2,30.23,SSW,193,2.0,7.0,47,0.00,,---,0.00,VWS V14.01,2013-02-06 19:34:00,
2013-02-06 14:39:00,46.0,27.4,30.22,ESE,113,1.0,7.0,48,0.00,,---,0.00,VWS V14.01,2013-02-06 19:39:00,
2013-02-06 14:44:00,46.2,27.1,30.22,NNW,329,4.0,10.0,47,0.00,,---,0.00,VWS V14.01,2013-02-06 19:44:00,
2013-02-06 14:49:00,46.1,27.5,30.22,WNW,293,2.0,10.0,48,0.00,,---,0.00,VWS V14.01,2013-02-06 19:49:00,
2013-02-06 14:54:00,46.0,27.4,30.22,NNE,19,2.0,10.0,48,0.00,,---,0.00,VWS V14.01,2013-02-06 19:54:00,
2013-02-06 14:59:00,46.2,27.6,30.22,NNW,327,2.0,10.0,48,0.00,,---,0.00,VWS V14.01,2013-02-06 19:59:00,
2013-02-06 15:04:00,46.2,27.6,30.23,SW,223,3.0,7.0,48,0.00,,---,0.00,VWS V14.01,2013-02-06 20:04:00,
2013-02-06 15:09:00,45.9,27.3,30.23,West,278,1.0,7.0,48,0.00,,---,0.00,VWS V14.01,2013-02-06 20:09:00,
2013-02-06 15:14:00,45.9,27.3,30.23,WSW,249,1.0,9.0,48,0.00,,---,0.00,VWS V14.01,2013-02-06 20:14:00,
2013-02-06 15:19:00,46.0,27.4,30.23,West,275,1.0,9.0,48,0.00,,---,0.00,VWS V14.01,2013-02-06 20:19:00,
2013-02-06 15:24:00,45.8,27.2,30.23,NE,56,1.0,9.0,48,0.00,,---,0.00,VWS V14.01,2013-02-06 20:24:00,
2013-02-06 15:29:00,45.9,27.8,30.24,NE,44,4.0,9.0,49,0.00,,---,0.00,VWS V14.01,2013-02-06 20:29:00,
2013-02-06 15:34:00,45.9,27.3,30.24,NNE,23,1.0,3.0,48,0.00,,---,0.00,VWS V14.01,2013-02-06 20:34:00,
2013-02-06 15:39:00,46.1,27.5,30.23,North,11,2.0,8.0,48,0.00,,---,0.00,VWS V14.01,2013-02-06 20:39:00,
2013-02-06 15:44:00,46.0,27.4,30.24,NNE,15,0.0,8.0,48,0.00,,---,0.00,VWS V14.01,2013-02-06 20:44:00,
2013-02-06 15:49:00,45.9,27.3,30.24,SW,225,0.0,8.0,48,0.00,,---,0.00,VWS V14.01,2013-02-06 20:49:00,
2013-02-06 15:54:00,46.0,27.4,30.25,ENE,67,3.0,8.0,48,0.00,,---,0.00,VWS V14.01,2013-02-06 20:54:00,
2013-02-06 15:59:00,45.7,27.1,30.24,WNW,286,1.0,8.0,48,0.00,,---,0.00,VWS V14.01,2013-02-06 20:59:00,
2013-02-06 16:04:00,45.9,27.3,30.24,SW,224,2.0,5.0,48,0.00,,---,0.00,VWS V14.01,2013-02-06 21:04:00,
2013-02-06 16:09:00,45.7,26.6,30.24,West,267,3.0,9.0,47,0.00,,---,0.00,VWS V14.01,2013-02-06 21:09:00,
2013-02-06 16:14:00,45.6,27.6,30.24,WNW,293,6.0,9.0,49,0.00,,---,0.00,VWS V14.01,2013-02-06 21:14:00,
2013-02-06 16:19:00,45.4,26.9,30.24,ENE,72,3.0,9.0,48,0.00,,---,0.00,VWS V14.01,2013-02-06 21:19:00,
2013-02-06 16:24:00,45.2,27.2,30.25,NNW,339,4.0,9.0,49,0.00,,---,0.00,VWS V14.01,2013-02-06 21:24:00,
2013-02-06 16:29:00,45.0,27.0,30.25,NNE,15,5.0,9.0,49,0.00,,---,0.00,VWS V14.01,2013-02-06 21:29:00,
2013-02-06 16:34:00,44.7,27.2,30.24,WSW,250,4.0,5.0,50,0.00,,---,0.00,VWS V14.01,2013-02-06 21:34:00,
2013-02-06 16:39:00,44.5,27.0,30.24,WNW,295,0.0,5.0,50,0.00,,---,0.00,VWS V14.01,2013-02-06 21:39:00,
2013-02-06 16:44:00,44.2,27.2,30.24,NW,316,2.0,5.0,51,0.00,,---,0.00,VWS V14.01,2013-02-06 21:44:00,
2013-02-06 16:49:00,43.8,27.3,30.24,NNW,348,1.0,5.0,52,0.00,,---,0.00,VWS V14.01,2013-02-06 21:49:00,
2013-02-06 16:54:00,43.4,27.0,30.24,ESE,106,2.0,8.0,52,0.00,,---,0.00,VWS V14.01,2013-02-06 21:54:00,
2013-02-06 16:59:00,42.9,27.0,30.25,ENE,77,1.0,9.0,53,0.00,,---,0.00,VWS V14.01,2013-02-06 21:59:00,
2013-02-06 17:04:00,42.5,27.0,30.25,WSW,245,1.0,3.0,54,0.00,,---,0.00,VWS V14.01,2013-02-06 22:04:00,
2013-02-06 17:09:00,42.2,26.8,30.26,ENE,68,0.0,7.0,54,0.00,,---,0.00,VWS V14.01,2013-02-06 22:09:00,
2013-02-06 17:14:00,41.9,26.5,30.27,East,80,1.0,7.0,54,0.00,,---,0.00,VWS V14.01,2013-02-06 22:14:00,
2013-02-06 17:19:00,41.6,26.6,30.27,SE,134,0.0,7.0,55,0.00,,---,0.00,VWS V14.01,2013-02-06 22:19:00,
2013-02-06 17:24:00,41.4,26.5,30.27,NNE,19,0.0,7.0,55,0.00,,---,0.00,VWS V14.01,2013-02-06 22:24:00,
2013-02-06 17:29:00,41.1,26.6,30.28,NW,309,0.0,7.0,56,0.00,,---,0.00,VWS V14.01,2013-02-06 22:29:00,
2013-02-06 17:34:00,40.9,26.4,30.28,NNE,23,2.0,4.0,56,0.00,,---,0.00,VWS V14.01,2013-02-06 22:34:00,
2013-02-06 17:39:00,40.7,26.2,30.28,NNW,327,2.0,4.0,56,0.00,,---,0.00,VWS V14.01,2013-02-06 22:39:00,
2013-02-06 17:44:00,40.6,26.6,30.29,NW,315,2.0,4.0,57,0.00,,---,0.00,VWS V14.01,2013-02-06 22:44:00,
2013-02-06 17:49:00,40.4,26.4,30.29,NW,315,0.0,4.0,57,0.00,,---,0.00,VWS V14.01,2013-02-06 22:49:00,
2013-02-06 17:54:00,40.2,26.2,30.29,West,278,1.0,5.0,57,0.00,,---,0.00,VWS V14.01,2013-02-06 22:54:00,
2013-02-06 17:59:00,40.1,26.5,30.29,NNW,345,1.0,5.0,58,0.00,,---,0.00,VWS V14.01,2013-02-06 22:59:00,
2013-02-06 18:04:00,39.9,26.3,30.29,NW,325,0.0,1.0,58,0.00,,---,0.00,VWS V14.01,2013-02-06 23:04:00,
2013-02-06 18:09:00,39.6,26.1,30.29,ESE,113,0.0,4.0,58,0.00,,---,0.00,VWS V14.01,2013-02-06 23:09:00,
2013-02-06 18:14:00,39.4,26.3,30.29,North,7,0.0,4.0,59,0.00,,---,0.00,VWS V14.01,2013-02-06 23:14:00,
2013-02-06 18:19:00,39.3,26.2,30.30,East,79,2.0,4.0,59,0.00,,---,0.00,VWS V14.01,2013-02-06 23:19:00,
2013-02-06 18:24:00,39.0,26.3,30.30,NW,306,0.0,4.0,60,0.00,,---,0.00,VWS V14.01,2013-02-06 23:24:00,
2013-02-06 18:29:00,38.8,26.1,30.30,WSW,238,5.0,5.0,60,0.00,,---,0.00,VWS V14.01,2013-02-06 23:29:00,
2013-02-06 18:34:00,38.7,26.0,30.30,ENE,66,0.0,0.0,60,0.00,,---,0.00,VWS V14.01,2013-02-06 23:34:00,
2013-02-06 18:39:00,38.6,25.9,30.31,NNE,20,0.0,0.0,60,0.00,,---,0.00,VWS V14.01,2013-02-06 23:39:00,
2013-02-06 18:44:00,38.4,25.7,30.31,WSW,239,1.0,2.0,60,0.00,,---,0.00,VWS V14.01,2013-02-06 23:44:00,
2013-02-06 18:49:00,38.2,25.5,30.31,WNW,288,1.0,2.0,60,0.00,,---,0.00,VWS V14.01,2013-02-06 23:49:00,
2013-02-06 18:54:00,38.0,25.8,30.32,North,352,0.0,3.0,61,0.00,,---,0.00,VWS V14.01,2013-02-06 23:54:00,
2013-02-06 18:59:00,37.9,25.7,30.31,NNW,330,1.0,3.0,61,0.00,,---,0.00,VWS V14.01,2013-02-06 23:59:00,
2013-02-06 19:04:00,37.8,25.6,30.31,West,266,0.0,2.0,61,0.00,,---,0.00,VWS V14.01,2013-02-07 00:04:00,
2013-02-06 19:09:00,37.6,25.8,30.31,East,98,0.0,2.0,62,0.00,,---,0.00,VWS V14.01,2013-02-07 00:09:00,
2013-02-06 19:14:00,37.4,25.6,30.32,NE,56,0.0,3.0,62,0.00,,---,0.00,VWS V14.01,2013-02-07 00:14:00,
2013-02-06 19:19:00,37.3,25.5,30.32,WNW,302,1.0,3.0,62,0.00,,---,0.00,VWS V14.01,2013-02-07 00:19:00,
2013-02-06 19:24:00,37.1,25.7,30.32,WNW,290,0.0,4.0,63,0.00,,---,0.00,VWS V14.01,2013-02-07 00:24:00,
2013-02-06 19:29:00,37.0,25.6,30.32,WSW,238,0.0,4.0,63,0.00,,---,0.00,VWS V14.01,2013-02-07 00:29:00,
2013-02-06 19:34:00,36.8,25.4,30.32,WNW,288,2.0,2.0,63,0.00,,---,0.00,VWS V14.01,2013-02-07 00:34:00,
2013-02-06 19:39:00,36.9,25.5,30.33,SW,221,0.0,4.0,63,0.00,,---,0.00,VWS V14.01,2013-02-07 00:39:00,
2013-02-06 19:44:00,36.7,25.3,30.33,North,9,0.0,4.0,63,0.00,,---,0.00,VWS V14.01,2013-02-07 00:44:00,
2013-02-06 19:49:00,36.5,25.1,30.33,North,9,0.0,4.0,63,0.00,,---,0.00,VWS V14.01,2013-02-07 00:49:00,
2013-02-06 19:54:00,36.4,25.0,30.33,North,11,1.0,4.0,63,0.00,,---,0.00,VWS V14.01,2013-02-07 00:54:00,
2013-02-06 19:59:00,36.4,25.0,30.33,WNW,302,0.0,4.0,63,0.00,,---,0.00,VWS V14.01,2013-02-07 00:59:00,
2013-02-06 20:04:00,36.4,25.0,30.33,NNE,25,0.0,5.0,63,0.00,,---,0.00,VWS V14.01,2013-02-07 01:04:00,
2013-02-06 20:09:00,36.2,25.2,30.33,NNE,25,0.0,5.0,64,0.00,,---,0.00,VWS V14.01,2013-02-07 01:09:00,
2013-02-06 20:14:00,35.9,24.9,30.34,NNE,25,0.0,5.0,64,0.00,,---,0.00,VWS V14.01,2013-02-07 01:14:00,
2013-02-06 20:19:00,35.7,24.7,30.34,WNW,301,0.0,5.0,64,0.00,,---,0.00,VWS V14.01,2013-02-07 01:19:00,
2013-02-06 20:24:00,35.5,24.9,30.34,ESE,118,0.0,5.0,65,0.00,,---,0.00,VWS V14.01,2013-02-07 01:24:00,
2013-02-06 20:29:00,35.3,24.7,30.34,NW,313,0.0,5.0,65,0.00,,---,0.00,VWS V14.01,2013-02-07 01:29:00,
2013-02-06 20:34:00,35.2,24.6,30.34,NNW,334,0.0,1.0,65,0.00,,---,0.00,VWS V14.01,2013-02-07 01:34:00,
2013-02-06 20:39:00,35.2,24.6,30.34,NNW,342,0.0,1.0,65,0.00,,---,0.00,VWS V14.01,2013-02-07 01:39:00,
2013-02-06 20:44:00,35.1,24.5,30.34,NNW,343,0.0,1.0,65,0.00,,---,0.00,VWS V14.01,2013-02-07 01:44:00,
2013-02-06 20:49:00,34.9,24.3,30.35,SE,138,1.0,1.0,65,0.00,,---,0.00,VWS V14.01,2013-02-07 01:49:00,
2013-02-06 20:54:00,35.0,24.4,30.35,ENE,73,0.0,2.0,65,0.00,,---,0.00,VWS V14.01,2013-02-07 01:54:00,
2013-02-06 20:59:00,34.7,24.1,30.35,ENE,74,0.0,2.0,65,0.00,,---,0.00,VWS V14.01,2013-02-07 01:59:00,
2013-02-06 21:04:00,34.5,24.3,30.35,NNE,29,0.0,2.0,66,0.00,,---,0.00,VWS V14.01,2013-02-07 02:04:00,
2013-02-06 21:09:00,34.5,24.0,30.35,NNE,22,1.0,3.0,65,0.00,,---,0.00,VWS V14.01,2013-02-07 02:09:00,
2013-02-06 21:14:00,34.7,24.1,30.35,NW,312,1.0,3.0,65,0.00,,---,0.00,VWS V14.01,2013-02-07 02:14:00,
2013-02-06 21:19:00,34.9,24.0,30.35,WNW,283,0.0,3.0,64,0.00,,---,0.00,VWS V14.01,2013-02-07 02:19:00,
2013-02-06 21:24:00,34.9,24.0,30.36,NNE,20,0.0,3.0,64,0.00,,---,0.00,VWS V14.01,2013-02-07 02:24:00,
2013-02-06 21:29:00,34.7,23.8,30.36,NNE,20,0.0,3.0,64,0.00,,---,0.00,VWS V14.01,2013-02-07 02:29:00,
2013-02-06 21:34:00,34.4,23.9,30.36,NNE,20,0.0,0.0,65,0.00,,---,0.00,VWS V14.01,2013-02-07 02:34:00,
2013-02-06 21:39:00,34.1,24.0,30.36,NNE,20,0.0,0.0,66,0.00,,---,0.00,VWS V14.01,2013-02-07 02:39:00,
2013-02-06 21:44:00,33.7,23.6,30.37,NNE,20,0.0,1.0,66,0.00,,---,0.00,VWS V14.01,2013-02-07 02:44:00,
2013-02-06 21:49:00,33.4,23.6,30.37,ENE,72,0.0,1.0,67,0.00,,---,0.00,VWS V14.01,2013-02-07 02:49:00,
2013-02-06 21:54:00,33.3,23.5,30.37,North,1,0.0,2.0,67,0.00,,---,0.00,VWS V14.01,2013-02-07 02:54:00,
2013-02-06 21:59:00,33.1,23.7,30.37,North,1,0.0,2.0,68,0.00,,---,0.00,VWS V14.01,2013-02-07 02:59:00,
2013-02-06 22:04:00,32.8,23.4,30.37,North,1,0.0,0.0,68,0.00,,---,0.00,VWS V14.01,2013-02-07 03:04:00,
2013-02-06 22:08:00,32.8,23.4,30.37,North,1,0.0,0.0,68,0.00,,---,0.00,VWS V14.01,2013-02-07 03:08:00,
2013-02-06 22:13:00,32.8,23.1,30.37,North,1,0.0,0.0,67,0.00,,---,0.00,VWS V14.01,2013-02-07 03:13:00,
2013-02-06 22:18:00,32.8,23.1,30.38,SE,134,0.0,1.0,67,0.00,,---,0.00,VWS V14.01,2013-02-07 03:18:00,
2013-02-06 22:23:00,32.8,23.1,30.38,SE,134,0.0,1.0,67,0.00,,---,0.00,VWS V14.01,2013-02-07 03:23:00,
2013-02-06 22:28:00,32.7,23.3,30.38,SE,134,0.0,1.0,68,0.00,,---,0.00,VWS V14.01,2013-02-07 03:28:00,
2013-02-06 22:33:00,32.4,23.4,30.38,SE,134,0.0,0.0,69,0.00,,---,0.00,VWS V14.01,2013-02-07 03:33:00,
2013-02-06 22:38:00,32.2,22.8,30.38,SE,134,0.0,0.0,68,0.00,,---,0.00,VWS V14.01,2013-02-07 03:38:00,
2013-02-06 22:43:00,32.1,22.8,30.39,SE,136,0.0,1.0,68,0.00,,---,0.00,VWS V14.01,2013-02-07 03:43:00,
2013-02-06 22:48:00,32.1,22.4,30.39,SE,135,0.0,1.0,67,0.00,,---,0.00,VWS V14.01,2013-02-07 03:48:00,
2013-02-06 22:53:00,32.1,22.8,30.38,SE,135,0.0,1.0,68,0.00,,---,0.00,VWS V14.01,2013-02-07 03:53:00,
2013-02-06 22:58:00,32.5,22.8,30.38,SE,134,0.0,1.0,67,0.00,,---,0.00,VWS V14.01,2013-02-07 03:58:00,
2013-02-06 23:03:00,32.7,22.6,30.38,SE,134,0.0,0.0,66,0.00,,---,0.00,VWS V14.01,2013-02-07 04:03:00,
2013-02-06 23:08:00,32.8,22.7,30.38,SE,134,0.0,1.0,66,0.00,,---,0.00,VWS V14.01,2013-02-07 04:08:00,
2013-02-06 23:13:00,32.7,22.2,30.38,SE,134,0.0,1.0,65,0.00,,---,0.00,VWS V14.01,2013-02-07 04:13:00,
2013-02-06 23:18:00,32.6,22.5,30.37,SE,133,0.0,1.0,66,0.00,,---,0.00,VWS V14.01,2013-02-07 04:18:00,
2013-02-06 23:23:00,32.6,22.1,30.37,SE,134,0.0,1.0,65,0.00,,---,0.00,VWS V14.01,2013-02-07 04:23:00,
2013-02-06 23:28:00,32.6,22.1,30.37,SE,134,0.0,1.0,65,0.00,,---,0.00,VWS V14.01,2013-02-07 04:28:00,
2013-02-06 23:33:00,32.4,22.0,30.38,SE,134,0.0,0.0,65,0.00,,---,0.00,VWS V14.01,2013-02-07 04:33:00,
2013-02-06 23:38:00,32.3,22.2,30.38,SE,134,0.0,0.0,66,0.00,,---,0.00,VWS V14.01,2013-02-07 04:38:00,
2013-02-06 23:43:00,32.2,21.8,30.38,SE,134,0.0,0.0,65,0.00,,---,0.00,VWS V14.01,2013-02-07 04:43:00,
2013-02-06 23:48:00,32.1,22.0,30.38,SE,134,0.0,0.0,66,0.00,,---,0.00,VWS V14.01,2013-02-07 04:48:00,
2013-02-06 23:53:00,32.2,22.1,30.37,SE,134,0.0,0.0,66,0.00,,---,0.00,VWS V14.01,2013-02-07 04:53:00,
2013-02-06 23:58:00,32.2,22.1,30.37,SE,134,0.0,0.0,66,0.00,,---,0.00,VWS V14.01,2013-02-07 04:58:00,